SCP
1 1 0 0 0 0 0 0 0 0 0 0 0 0 0 0 0 0 0 1 1 1 1 1 1 1 1 1 1 1 1 1 1 1 1 1 1 1 1 1 1 1 1 1 1 1 1 1 1
1 0 0 0 0 0 0 0 0 0 0 0 0 0 0 0 0 0 1 1 1 1 1 1 1 1 1 1 1 1 1 1 1 1 1 1 1 1 1 1 1 1 1 1 1 1 1 1 1
0 0 0 0 0 0 0 0 0 0 0 0 0 0 0 0 0 0 1 1 1 1 1 1 1 1 1 1 1 1 1 1 1 1 1 1 1 1 1 1 1 1 1 1 1 1 1 1 1
0 0 0 0 0 0 0 0 0 0 0 0 0 0 0 1 1 1 1 1 1 1 1 1 1 1 1 1 1 1 1 1 1 1 1 1 1 1 1 1 1 1 1 1 1 1 1 1 1
0 0 0 0 0 0 0 0 0 0 0 0 0 0 1 1 1 1 1 1 1 1 1 1 1 1 1 1 1 1 1 1 1 1 1 1 1 1 1 1 1 1 1 1 1 1 1 1 1
1 0 0 0 0 0 0 0 0 0 0 0 0 1 1 1 1 1 1 0 0 0 0 0 0 0 1 1 1 1 1 1 1 1 1 1 1 1 1 1 1 1 1 1 1 1 1 1 1
1 1 0 0 0 0 0 0 0 0 0 1 1 1 1 1 1 1 0 0 0 0 0 0 0 0 0 1 1 1 1 1 1 1 1 1 1 1 1 1 1 1 1 1 1 1 1 1 1
1 1 0 0 0 0 0 0 0 0 0 0 1 1 1 1 1 1 1 1 0 0 0 0 0 0 0 0 0 0 0 0 1 1 0 1 1 1 1 1 1 1 1 1 1 1 1 1 1
1 1 1 0 0 0 0 0 0 1 0 0 1 1 1 1 1 1 1 1 0 0 0 0 0 0 0 0 0 0 0 0 0 0 0 0 0 1 1 1 1 1 1 1 1 1 1 1 1
2 1 1 0 0 0 0 0 0 1 0 0 1 1 1 1 1 1 0 0 0 0 0 0 0 0 0 0 0 0 0 0 0 0 0 0 1 1 1 1 1 1 1 1 1 1 1 1 1
1 1 1 0 1 1 0 0 0 0 0 1 1 1 1 1 1 0 0 0 0 0 0 0 0 0 0 0 0 0 0 0 0 0 0 0 1 1 1 1 1 1 1 1 1 1 1 1 1
1 1 1 1 0 0 0 0 0 0 0 1 1 1 1 1 1 0 0 0 0 0 0 0 0 0 0 0 0 0 0 0 0 0 0 0 0 0 1 1 1 1 1 1 1 1 1 1 1
1 1 1 1 0 0 0 0 0 0 1 1 1 1 1 1 1 0 0 0 0 0 0 0 0 0 0 0 0 0 0 0 0 0 0 0 0 0 0 0 0 1 1 1 1 1 1 1 1
1 1 1 1 0 0 0 0 0 0 1 1 1 1 2 1 0 0 0 0 0 0 0 0 0 0 0 0 0 0 0 0 0 0 0 0 0 0 0 0 0 0 1 1 1 1 1 1 1
1 1 1 1 1 1 0 0 0 1 1 1 1 1 2 1 0 0 0 0 0 0 0 0 0 0 0 0 0 0 0 0 0 0 0 0 0 0 0 0 0 0 0 1 1 1 1 1 1
1 1 1 1 1 1 1 0 0 1 1 1 1 2 2 1 0 0 0 0 0 0 0 0 0 0 0 0 0 0 0 0 0 0 0 0 0 0 0 0 0 0 0 0 1 1 1 1 1
1 1 1 1 0 0 0 0 0 1 1 1 1 2 2 1 0 0 0 0 0 0 0 0 0 0 0 0 0 0 0 0 0 0 0 0 0 0 0 0 0 0 0 0 1 0 0 0 1
0 0 0 0 0 0 0 0 0 1 1 1 1 2 1 1 0 0 0 0 0 0 0 0 0 0 0 0 0 0 0 0 0 0 0 0 0 0 0 0 0 0 0 0 0 0 0 0 1
0 0 0 0 0 0 0 0 0 1 1 1 1 1 1 1 0 0 0 0 0 0 0 0 0 0 0 0 0 0 0 0 0 0 0 0 0 0 0 0 0 0 0 0 0 0 0 0 1
0 0 0 0 0 0 1 0 0 1 1 1 1 1 1 0 0 0 0 0 0 0 0 0 0 0 0 0 0 0 0 0 0 0 0 0 0 0 0 0 0 0 0 0 0 0 0 0 0
0 0 0 0 0 0 0 0 0 1 1 1 1 1 1 0 0 0 0 0 0 0 0 0 0 0 0 0 0 0 0 0 0 0 0 0 0 0 0 0 0 0 0 0 0 0 0 0 0
0 0 0 0 0 0 0 0 0 1 1 1 1 1 0 0 1 1 0 0 0 0 0 0 0 0 0 0 0 0 0 0 0 0 0 0 0 0 0 0 0 0 0 0 0 0 0 0 0
0 0 0 0 0 0 0 0 0 0 0 0 1 1 1 1 1 1 1 0 0 0 0 0 0 0 0 0 0 0 0 0 0 0 0 0 0 0 0 0 0 0 0 0 0 0 0 0 0
0 0 0 0 0 0 0 0 0 0 0 0 1 1 1 1 1 1 1 0 0 0 0 0 0 0 0 0 0 0 0 0 0 0 0 0 0 0 0 0 0 0 0 0 0 0 0 0 0
0 0 0 0 0 0 0 0 0 0 0 0 1 1 1 1 1 1 1 1 0 0 0 0 0 0 0 0 0 0 0 0 0 0 0 0 0 0 0 0 0 0 0 0 0 1 1 0 0
0 0 0 0 0 0 0 0 0 0 0 0 0 1 1 1 1 1 1 1 1 0 0 0 0 0 0 0 0 0 0 0 0 0 0 0 0 0 0 0 0 0 0 0 0 1 0 0 0
0 0 0 0 0 0 0 0 0 0 0 0 0 0 1 1 1 2 2 2 1 1 0 0 0 0 0 0 0 0 0 0 0 0 0 0 0 0 0 0 0 0 0 0 0 1 0 0 0
0 0 0 0 0 0 0 0 0 0 0 0 0 0 0 0 1 1 2 2 1 1 0 0 0 0 0 0 0 0 0 0 0 0 0 0 0 0 0 0 0 0 0 0 0 0 0 0 0
0 0 0 0 0 0 0 0 0 0 0 0 0 0 0 0 0 1 1 1 1 1 0 0 0 0 0 0 0 0 0 0 0 0 0 0 0 0 0 0 0 0 0 0 0 0 0 0 0
0 0 0 0 0 0 0 0 0 0 0 0 0 0 0 0 0 0 1 1 1 1 1 0 0 0 0 0 0 0 0 0 0 0 0 0 0 0 0 0 0 0 0 0 0 0 0 0 0
Wind_Speed
8 7 4 2 2 3 3 1 3 3 3 4 5 6 10 11 8 7 3 6 11 13 12 10 10 9 8 7 7 6 5 5 5 4 3 3 2 3 3 3 3 3 4 4 4 4 3 4 4
7 6 3 2 3 2 0 3 5 5 3 2 3 8 10 11 11 8 4 7 11 12 10 10 10 9 8 8 7 7 6 5 5 5 4 3 3 3 3 3 4 4 4 4 4 4 4 4 3
8 6 3 3 3 1 2 4 3 4 4 4 6 9 9 7 8 6 6 9 11 11 11 11 10 9 8 8 7 6 6 6 5 5 4 3 3 3 4 4 4 4 5 5 5 5 4 4 4
5 3 4 4 5 1 3 3 2 3 4 4 5 9 9 8 7 9 9 9 11 11 11 10 9 8 7 7 6 6 5 5 5 4 4 3 3 3 4 4 4 5 5 5 5 5 5 5 4
3 3 4 4 4 2 3 3 2 3 4 6 7 10 10 10 11 11 8 8 9 9 10 10 9 8 7 6 6 5 5 5 4 4 4 3 3 4 4 4 5 5 5 5 5 4 5 5 5
2 3 3 4 0 3 2 2 2 4 5 6 6 9 9 10 10 9 9 8 8 8 9 10 10 9 7 7 6 5 4 3 3 3 3 3 3 4 4 4 4 4 4 5 5 5 5 5 5
2 3 5 4 1 2 3 3 4 4 6 6 3 7 10 10 8 8 9 8 7 6 6 8 8 8 8 7 6 4 2 0 1 2 3 4 5 6 6 5 4 4 4 4 5 5 5 5 5
3 3 6 4 1 3 4 3 5 5 5 5 4 6 9 11 9 8 8 7 6 6 5 5 5 5 5 6 7 5 4 4 4 5 6 7 8 9 9 6 4 4 5 5 5 5 5 6 6
4 3 4 3 1 3 4 3 3 4 5 5 8 10 13 14 10 8 6 6 5 4 3 4 3 3 3 4 6 6 6 6 6 6 9 8 5 4 5 4 4 5 6 7 6 6 7 7 7
4 2 4 2 1 3 3 3 2 3 3 5 9 12 13 12 9 7 6 5 5 4 2 3 3 2 1 1 3 2 2 3 3 1 2 2 2 2 2 2 5 7 8 9 9 9 8 6 4
5 4 5 2 1 2 2 2 1 2 2 4 10 11 11 10 7 5 5 5 4 4 3 3 2 2 1 1 1 0 0 1 0 2 2 2 2 2 1 0 2 4 6 4 4 6 4 3 2
7 5 4 2 2 0 1 2 2 2 2 5 9 12 11 9 8 6 5 4 4 5 4 3 3 2 2 2 1 1 1 1 1 2 3 2 1 2 2 1 1 1 1 1 1 2 3 3 3
8 6 4 2 3 3 3 2 2 2 3 7 10 10 10 9 8 7 6 5 5 5 5 3 1 2 2 2 1 1 2 2 2 1 3 2 1 2 2 1 1 1 1 1 1 2 3 2 3
5 5 4 3 4 3 3 4 4 3 4 7 9 9 9 7 6 6 6 4 5 4 4 3 2 3 3 2 3 3 2 1 1 2 3 3 2 2 2 2 1 1 1 1 2 2 2 2 2
5 5 5 5 6 4 4 6 7 6 7 8 9 9 7 6 5 4 5 4 4 4 4 4 2 3 4 4 4 3 2 2 2 2 3 3 2 2 2 2 2 2 2 2 2 2 1 2 2
7 6 5 5 4 4 4 4 5 8 9 8 7 8 7 6 6 5 5 4 5 4 4 5 3 3 4 4 3 3 3 3 2 2 2 4 4 4 2 2 2 3 2 2 2 1 1 2 2
6 6 6 4 6 6 6 3 4 7 8 7 7 8 9 8 6 5 6 5 5 4 4 4 5 3 4 2 1 1 2 2 2 3 3 4 4 4 3 2 2 3 2 2 3 2 1 1 2
5 5 4 3 5 8 7 5 8 10 10 8 8 8 10 10 9 7 7 5 5 4 3 4 5 3 3 1 2 2 2 2 2 2 3 4 3 4 3 2 2 2 1 1 2 2 2 2 2
5 5 4 4 7 7 7 7 7 10 9 8 8 8 9 9 10 9 8 6 5 4 3 4 3 3 3 2 2 2 2 2 2 2 3 3 4 4 3 3 2 1 1 1 2 2 2 2 1
7 5 4 4 4 5 5 6 5 7 10 9 7 7 7 9 10 10 8 7 4 4 4 3 3 4 4 2 1 0 1 1 1 1 1 3 3 4 4 3 3 2 1 1 2 1 1 2 1
5 3 3 4 4 6 6 6 6 5 6 7 7 5 5 8 9 11 8 7 5 4 4 3 3 4 4 2 1 2 1 2 1 1 1 2 2 2 2 3 3 3 2 1 2 1 1 1 2
4 4 5 5 4 4 5 4 4 8 8 8 7 6 4 6 7 9 8 7 6 5 5 3 3 3 3 2 2 1 1 1 2 2 1 2 1 1 2 2 3 2 1 1 2 1 1 1 1
3 4 6 6 5 6 6 5 2 6 8 8 8 7 6 7 7 9 9 7 6 6 5 3 3 3 3 2 2 0 1 1 1 2 2 2 1 1 1 2 2 2 1 1 1 1 1 1 1
2 5 7 7 5 6 5 3 1 3 5 7 8 7 7 7 7 8 8 7 6 6 5 3 3 3 2 0 1 1 1 1 2 2 2 2 1 1 2 2 2 2 1 1 1 1 1 1 1
5 4 3 2 2 3 2 3 1 4 4 4 7 8 7 7 7 7 8 8 6 6 5 4 4 3 3 1 1 1 1 1 1 1 2 2 2 1 2 2 2 2 2 1 1 1 1 1 1
6 5 1 2 3 3 4 3 5 7 5 4 5 7 7 7 7 7 8 8 7 7 6 5 5 4 3 2 1 0 2 0 1 1 2 2 1 1 2 3 2 2 2 2 1 1 1 1 0
3 3 4 5 7 6 3 5 7 7 6 4 5 6 6 7 7 7 7 8 7 7 6 5 5 4 3 2 1 1 1 1 1 2 1 1 2 2 3 3 2 1 1 1 1 1 1 1 0
6 5 3 4 4 4 2 1 5 6 6 6 6 6 7 7 8 7 7 8 7 7 6 6 5 4 4 3 2 2 1 1 0 2 2 2 2 2 1 2 2 2 1 1 1 1 1 1 0
6 5 4 3 4 3 3 3 4 4 4 4 5 6 7 7 7 7 7 7 7 7 7 6 5 4 4 3 2 2 2 1 1 1 1 1 1 1 2 2 2 2 2 1 1 1 1 1 1
4 5 5 4 4 5 3 0 3 4 3 3 3 4 6 6 7 7 7 7 7 7 7 7 6 5 4 3 2 2 2 1 0 1 1 2 1 1 2 2 3 3 2 2 1 1 1 1 1
Wind_Direction
180 193 202 217 245 239 256 112 88 51 48 33 29 51 68 56 50 86 124 101 107 110 111 106 99 95 91 89 85 76 67 63 56 47 37 25 13 4 351 343 338 338 334 334 332 332 337 347 358
197 192 213 233 252 262 13 73 77 73 64 27 55 59 72 69 74 94 102 96 105 108 109 103 98 92 86 81 75 68 60 54 48 42 36 25 10 354 338 327 323 324 323 320 321 318 316 320 332
215 213 238 240 257 309 63 70 85 85 58 34 60 63 57 62 79 97 117 117 105 102 101 100 98 92 85 79 74 66 58 51 43 34 26 19 14 1 347 337 326 323 317 314 315 315 307 298 297
200 216 246 251 271 331 98 112 109 98 96 61 66 78 75 57 82 111 119 115 108 106 106 106 101 95 90 83 75 65 54 47 39 28 18 9 1 357 344 332 321 314 310 310 308 302 296 288 282
222 247 254 260 260 95 89 100 112 95 84 69 72 89 91 87 100 111 114 110 108 111 116 119 115 109 101 95 83 68 52 43 36 24 11 358 339 327 320 314 310 308 306 308 309 299 285 272 268
247 252 265 279 30 77 79 82 92 93 95 88 94 106 103 116 115 120 119 116 112 117 122 126 132 129 121 110 98 79 56 37 21 9 357 336 316 301 297 295 293 295 299 301 300 292 280 270 262
238 274 274 280 89 95 84 52 43 59 73 67 72 101 121 125 126 128 123 117 115 114 121 136 148 149 146 135 127 118 112 67 308 298 294 288 283 275 269 267 271 282 283 287 287 284 276 267 262
236 279 290 309 77 95 79 55 60 58 75 61 42 95 127 133 135 132 129 130 131 129 128 131 137 138 150 157 159 162 179 212 240 249 255 261 266 258 247 244 240 259 269 271 272 273 270 264 258
256 259 296 324 37 84 89 74 70 75 87 84 68 82 118 129 138 143 142 137 125 116 117 121 114 114 149 169 155 180 199 214 235 238 240 251 259 254 231 211 205 236 253 257 257 260 261 257 247
212 252 288 289 66 105 109 107 113 123 124 116 106 108 123 138 150 154 150 140 135 126 99 86 91 102 86 22 124 183 196 196 233 251 239 250 285 295 301 174 218 238 246 248 246 252 257 250 237
221 224 265 283 35 121 137 133 148 111 137 132 132 136 142 147 151 153 141 128 122 111 86 64 47 69 59 75 55 318 252 197 289 359 336 335 336 325 308 220 217 244 249 246 245 245 248 236 219
244 254 251 322 332 246 180 162 151 143 111 116 126 143 149 158 159 161 145 127 118 105 92 55 18 19 27 53 29 301 6 26 23 359 350 359 354 327 325 334 329 282 280 268 258 250 255 254 252
236 256 266 237 231 229 210 189 205 159 139 130 134 149 160 167 164 158 139 138 130 123 124 101 6 11 27 56 322 17 33 16 359 27 337 347 4 321 333 315 324 308 303 297 286 271 271 267 265
231 235 233 228 227 224 218 208 200 168 164 151 153 161 170 165 165 152 149 145 130 115 112 100 58 27 19 35 26 23 20 334 6 31 331 347 356 333 331 325 329 307 292 285 280 282 278 270 271
239 240 238 227 225 213 226 232 203 164 174 173 173 168 161 160 161 163 143 139 117 111 106 94 62 37 31 39 25 10 348 14 24 13 342 346 346 333 347 354 333 315 323 322 312 307 309 290 277
232 235 237 230 224 204 223 254 191 159 180 185 183 162 159 165 177 167 140 132 112 103 93 93 72 45 47 42 19 354 11 18 0 6 7 351 350 349 2 356 325 322 340 331 304 302 319 305 291
233 237 238 212 211 204 221 247 161 170 189 190 189 173 168 171 182 157 138 125 109 100 91 102 90 58 64 42 333 6 21 13 359 18 18 358 349 348 352 340 329 328 344 342 317 326 298 291 289
229 250 268 243 216 219 224 230 179 191 199 199 193 189 178 179 177 158 136 123 121 120 111 94 94 79 78 53 4 32 19 1 16 27 19 1 345 349 344 331 329 334 350 338 313 318 314 293 288
255 255 248 247 224 226 232 239 205 187 190 204 206 200 187 174 162 145 137 140 148 137 113 101 110 102 85 47 11 13 3 357 9 19 20 357 354 347 334 329 320 327 319 300 306 311 307 295 293
256 264 266 284 265 258 251 247 234 193 194 200 210 207 183 158 151 142 147 154 158 135 120 116 110 100 92 80 354 327 23 330 11 355 16 6 358 354 342 343 335 325 308 315 300 299 313 307 314
253 273 281 278 284 272 270 254 231 189 198 190 205 203 180 160 162 152 153 150 146 135 119 107 107 110 104 110 44 11 9 316 344 349 16 356 339 341 328 328 324 320 324 294 281 271 269 292 302
270 263 252 260 273 278 263 272 209 176 183 190 189 185 176 153 151 145 150 150 152 137 126 142 132 117 117 122 82 6 335 343 3 358 349 323 352 344 335 324 314 307 303 301 298 303 261 245 287
241 287 282 268 267 270 259 268 208 174 181 181 176 174 167 154 155 148 151 150 151 137 133 142 129 118 108 98 122 248 355 353 348 339 333 325 334 311 319 316 303 297 286 292 301 300 275 218 231
239 269 267 254 262 260 247 253 205 189 165 165 160 160 156 154 150 146 142 141 140 132 133 143 136 120 112 142 180 170 83 342 331 334 336 319 307 309 343 326 315 322 334 344 322 303 271 226 240
230 255 289 283 257 267 222 217 155 106 102 129 147 152 152 149 149 147 146 146 144 143 147 155 148 143 151 205 250 152 123 307 323 335 320 318 331 351 348 342 342 354 353 347 338 312 303 244 216
228 235 237 311 290 282 232 205 112 113 99 95 119 131 141 148 148 151 151 149 152 153 156 164 158 159 163 200 246 51 95 5 2 332 316 328 340 10 1 343 1 21 4 341 347 328 310 283 239
256 233 221 247 267 267 211 141 125 127 132 149 149 139 152 156 153 156 155 153 157 157 163 171 162 163 170 190 185 111 62 56 351 314 322 349 341 3 10 348 359 15 358 338 5 352 331 319 134
268 291 275 276 318 313 317 106 125 139 153 169 171 166 168 163 159 160 159 160 160 158 163 166 164 169 176 182 176 144 146 133 281 309 343 344 341 10 355 337 343 360 9 354 30 24 7 8 78
222 247 267 283 281 297 332 21 73 113 138 167 180 168 165 161 161 161 159 158 158 159 162 167 173 177 167 173 168 149 161 190 256 286 319 311 328 344 345 350 353 3 4 5 47 36 37 4 7
279 285 292 298 312 309 298 30 108 112 124 157 167 154 158 159 160 159 155 155 160 166 169 173 177 175 164 165 167 154 165 167 219 307 319 321 337 342 353 12 4 7 11 4 31 31 28 357 1